Preview of NWS' New Version of Forecast
This preview is not operational and should not be used for support decisions.

Regional Weather Roundup (RWR)

Issued by National Weather Service (NWS)

                            
000
ASCA42 TJSJ 232310
RWRPR 
PUERTO RICO/U.S. VIRGIN ISLANDS HOURLY WEATHER ROUNDUP
NATIONAL WEATHER SERVICE SAN JUAN PR
700 PM AST THU MAY 23 2019

PRZ001>002-007>008-010-240000-
PUERTO RICO
  
CITY           SKY/WX    TMP DP  RH WIND       PRES   REMARKS
SAN JUAN LMM   MOCLDY    81  72  74 E9        29.93S                  
AGUADILLA      LGT RAIN  73  72  94 CALM      29.95R                  
CEIBA          PTCLDY    82  72  69 E7        29.95R                  
$$

VIZ001>002-240000-
U.S. VIRGIN ISLANDS
  
CITY           SKY/WX    TMP DP  RH WIND       PRES   REMARKS
CHARLOTTE AMA  PTCLDY    81  72  74 E9        29.93R                  
CHRISTIANSTED  CLOUDY    77  73  88 E5        29.95R                  
$$

HOURLY WEATHER ROUNDUP FOR THE NEWS MEDIA
  
CITY           SKY/WX    TMP DP  RH WIND       PRES   REMARKS
ORLANDO        FAIR      83  63  50 E17       30.14F                  
NEW YORK       PTSUNNY   64  63  96 S12       29.94F                  
NEWARK         PTSUNNY   68  62  81 S9        29.92F                  
CHICAGO        FAIR      73  49  42 W13G22    30.03S                  
HARTFORD       LGT RAIN  60  53  77 S14G21    29.95F                  
BOSTON         CLOUDY    63  54  72 SW12      29.91F                  
DALLAS         MOSUNNY   90  69  50 SE20G29   29.92F HX  94           
PHILADELPHIA   PTSUNNY   74  67  78 S7        29.92F                  
LOS ANGELES    CLOUDY    62  50  64 SW9       30.00S                  
WASHINGTON DC  PTSUNNY   76  67  73 S7        29.98F